Weather History for Fort Morgan, CO

Change the Weather History Date:

Thursday, April 10, 2014

  Actual Average (KAKO) Record (KAKO)
Temperature  
Mean Temperature 50 °F 45 °F  
Max Temperature 64 °F 59 °F 84 °F (1977)
Min Temperature 37 °F 31 °F 4 °F (1959)
Degree Days  
Heating Degree Days 14    
Month to date heating degree days  
Cooling Degree Days 0    
Month to date cooling degree days  
Moisture  
Dew Point 32 °F    
Average Humidity 46    
Maximum Humidity 83    
Minimum Humidity 21    
Precipitation  
Precipitation 0.00 in 0.05 in 0.83 in (1944)
Month to date precipitation 0.42  
Year to date precipitation 2.03  
Sea Level Pressure  
Sea Level Pressure 29.99 in    
Wind  
Wind Speed 14 mph (ESE)    
Max Wind Speed 28 mph    
Max Gust Speed 36 mph    
Visibility 10 miles    
Events      
T = Trace of Precipitation, MM = Missing Value Source: NWS Daily Summary

Daily Weather History Graph

Daily Weather History Graph

Search for Another Location

Airport:

Trip Planner

Search our weather history database for the weather conditions in past years. The results will help you decide how hot, cold, wet, or windy it might be!

Date:

Astronomy

Apr. 10, 2014 Rise Set
Actual Time 6:24 AM MDT 7:29 PM MDT
Civil Twilight 5:56 AM MDT 7:57 PM MDT
Nautical Twilight 5:23 AM MDT 8:30 PM MDT
Astronomical Twilight 4:48 AM MDT 9:05 PM MDT
Moon 3:14 PM MDT (4/10) 3:49 AM MDT (4/10)
Length of Visible Light 14h 00m
Length of Day
13h 04m
Waxing Gibbous, 80% of the Moon is Illuminated
Apr 10
Waxing Gibbous
Apr 15
Full
Apr 22
Last Quarter
Apr 29
New
May 6
First Quarter

Hourly Weather History & Observations

Time (MDT) Temp. Windchill Dew Point Humidity Pressure Visibility Wind Dir Wind Speed Gust Speed Precip Events Conditions
12:15 AM 62.1 °F - 23.9 °F 23% 29.87 in 10.0 mi NW 20.7 mph - N/A   Scattered Clouds
12:35 AM 63.7 °F - 22.6 °F 21% 29.87 in 10.0 mi NW 25.3 mph 31.1 mph N/A   Scattered Clouds
12:55 AM 63.9 °F - 23.0 °F 21% 29.87 in 10.0 mi NW 27.6 mph 35.7 mph N/A   Scattered Clouds
1:15 AM 55.0 °F - 27.9 °F 35% 29.89 in 10.0 mi NNW 27.6 mph 33.4 mph N/A   Scattered Clouds
1:35 AM 51.8 °F - 31.1 °F 45% 29.91 in 10.0 mi North 25.3 mph 32.2 mph N/A   Scattered Clouds
1:55 AM 50.9 °F - 32.0 °F 48% 29.92 in 10.0 mi North 27.6 mph 35.7 mph N/A   Clear
2:15 AM 49.1 °F - 33.1 °F 54% 29.93 in 10.0 mi North 23.0 mph 32.2 mph N/A   Clear
2:35 AM 47.8 °F - 33.6 °F 58% 29.93 in 10.0 mi NNE 23.0 mph 28.8 mph N/A   Clear
2:55 AM 46.0 °F 39.0 °F 33.6 °F 62% 29.96 in 10.0 mi ENE 17.3 mph 21.9 mph N/A   Clear
3:15 AM 45.9 °F 38.5 °F 33.8 °F 63% 29.95 in 10.0 mi NE 18.4 mph 29.9 mph N/A   Clear
3:35 AM 45.0 °F 37.4 °F 34.0 °F 65% 29.96 in 10.0 mi ENE 18.4 mph - N/A   Scattered Clouds
3:55 AM 45.0 °F 37.4 °F 33.8 °F 65% 29.97 in 10.0 mi NNE 18.4 mph 27.6 mph N/A   Scattered Clouds
4:15 AM 42.1 °F 35.7 °F 33.1 °F 70% 29.97 in 10.0 mi North 11.5 mph - N/A   Clear
4:35 AM 42.4 °F 35.7 °F 33.4 °F 70% 29.98 in 10.0 mi NE 12.7 mph - N/A   Clear
4:55 AM 41.5 °F 33.5 °F 33.4 °F 73% 29.98 in 10.0 mi NE 16.1 mph - N/A   Clear
5:15 AM 41.2 °F 35.0 °F 33.3 °F 73% 30.00 in 10.0 mi NE 10.4 mph - N/A   Scattered Clouds
5:35 AM 41.4 °F 37.6 °F 33.4 °F 73% 30.02 in 10.0 mi ENE 5.8 mph - N/A   Scattered Clouds
5:55 AM 40.1 °F - 33.3 °F 77% 30.04 in 10.0 mi Calm Calm - N/A   Mostly Cloudy
6:15 AM 40.3 °F 38.2 °F 33.1 °F 75% 30.04 in 10.0 mi SSE 3.5 mph - N/A   Mostly Cloudy
6:35 AM 38.3 °F 33.9 °F 32.2 °F 79% 30.07 in 10.0 mi WSW 5.8 mph - N/A   Scattered Clouds
6:55 AM 37.4 °F 34.9 °F 32.7 °F 83% 30.08 in 10.0 mi WNW 3.5 mph - N/A   Mostly Cloudy
7:15 AM 38.3 °F 34.8 °F 33.1 °F 81% 30.09 in 10.0 mi NW 4.6 mph - N/A   Mostly Cloudy
7:35 AM 43.2 °F - 34.3 °F 71% 30.10 in 10.0 mi Calm Calm - N/A   Scattered Clouds
7:55 AM 44.6 °F - 32.2 °F 62% 30.11 in 10.0 mi Calm Calm - N/A   Clear
8:15 AM 46.0 °F 44.8 °F 32.9 °F 60% 30.10 in 10.0 mi ENE 3.5 mph - N/A   Clear
8:35 AM 47.3 °F - 32.0 °F 55% 30.11 in 10.0 mi East 6.9 mph - N/A   Clear
8:55 AM 49.3 °F - 30.4 °F 48% 30.09 in 10.0 mi East 9.2 mph - N/A   Clear
9:15 AM 50.0 °F - 29.7 °F 46% 30.09 in 10.0 mi East 12.7 mph - N/A   Clear
9:35 AM 50.2 °F - 30.4 °F 47% 30.09 in 10.0 mi East 12.7 mph 18.4 mph N/A   Clear
9:55 AM 51.1 °F - 30.6 °F 45% 30.09 in 10.0 mi East 15.0 mph - N/A   Clear
10:15 AM 51.4 °F - 31.5 °F 46% 30.09 in 10.0 mi East 11.5 mph 16.1 mph N/A   Clear
10:35 AM 51.8 °F - 30.7 °F 45% 30.08 in 10.0 mi East 11.5 mph 18.4 mph N/A   Clear
10:55 AM 53.8 °F - 30.9 °F 42% 30.07 in 10.0 mi East 12.7 mph 16.1 mph N/A   Clear
11:15 AM 53.6 °F - 30.7 °F 42% 30.06 in 10.0 mi East 8.1 mph - N/A   Clear
11:35 AM 55.0 °F - 31.3 °F 40% 30.06 in 10.0 mi ESE 12.7 mph 18.4 mph N/A   Clear
11:55 AM 56.1 °F - 31.5 °F 39% 30.04 in 10.0 mi ESE 13.8 mph 19.6 mph N/A   Clear
12:15 PM 57.4 °F - 31.8 °F 38% 30.04 in 10.0 mi ESE 10.4 mph 18.4 mph N/A   Clear
12:35 PM 57.7 °F - 32.0 °F 38% 30.03 in 10.0 mi SSE 10.4 mph - N/A   Clear
12:55 PM 58.8 °F - 31.8 °F 36% 30.02 in 10.0 mi SE 11.5 mph 17.3 mph N/A   Clear
1:15 PM 59.9 °F - 32.2 °F 35% 30.01 in 10.0 mi ESE 10.4 mph 16.1 mph N/A   Clear
1:35 PM 61.3 °F - 31.6 °F 33% 30.00 in 10.0 mi SE 12.7 mph 21.9 mph N/A   Clear
1:55 PM 61.9 °F - 31.5 °F 32% 29.99 in 10.0 mi SE 12.7 mph 23.0 mph N/A   Clear
2:15 PM 63.5 °F - 31.5 °F 30% 29.98 in 10.0 mi SE 13.8 mph 19.6 mph N/A   Clear
2:35 PM 63.1 °F - 31.3 °F 30% 29.98 in 10.0 mi SE 11.5 mph 19.6 mph N/A   Clear
2:55 PM 62.6 °F - 31.5 °F 31% 29.97 in 10.0 mi SSE 12.7 mph - N/A   Clear
3:15 PM 64.4 °F - 31.5 °F 29% 29.96 in 10.0 mi SSE 6.9 mph - N/A   Clear
3:35 PM 64.0 °F - 31.8 °F 30% 29.96 in 10.0 mi SSE 8.1 mph - N/A   Clear
3:55 PM 64.2 °F - 32.0 °F 30% 29.96 in 10.0 mi SE 8.1 mph - N/A   Clear
4:15 PM 64.4 °F - 32.0 °F 30% 29.95 in 10.0 mi ESE 5.8 mph - N/A   Clear
4:35 PM 64.6 °F - 31.8 °F 29% 29.95 in 10.0 mi ESE 8.1 mph - N/A   Clear
4:55 PM 64.8 °F - 31.6 °F 29% 29.94 in 10.0 mi SSE 5.8 mph - N/A   Clear
5:15 PM 64.2 °F - 31.6 °F 30% 29.94 in 10.0 mi South 5.8 mph - N/A   Clear
5:35 PM 63.9 °F - 32.0 °F 30% 29.94 in 10.0 mi SSE 5.8 mph - N/A   Scattered Clouds
5:55 PM 63.7 °F - 31.5 °F 30% 29.94 in 10.0 mi SSE 5.8 mph - N/A   Clear
6:15 PM 62.1 °F - 32.9 °F 34% 29.94 in 10.0 mi SSE 5.8 mph - N/A   Scattered Clouds
6:35 PM 62.8 °F - 32.0 °F 32% 29.94 in 10.0 mi SE 4.6 mph - N/A   Scattered Clouds
6:55 PM 63.3 °F - 31.1 °F 30% 29.94 in 10.0 mi South 8.1 mph - N/A   Clear
7:15 PM 59.7 °F - 31.8 °F 35% 29.94 in 10.0 mi SW 5.8 mph - N/A   Clear
7:55 PM 55.6 °F - 32.9 °F 42% 29.96 in 10.0 mi West 3.5 mph - N/A   Clear
8:15 PM 58.5 °F - 32.2 °F 37% 29.96 in 10.0 mi West 4.6 mph - N/A   Clear
8:35 PM 57.4 °F - 32.0 °F 38% 29.97 in 10.0 mi West 4.6 mph - N/A   Clear
8:55 PM 56.3 °F - 32.0 °F 40% 29.98 in 10.0 mi Calm Calm - N/A   Clear
9:15 PM 55.8 °F - 32.0 °F 41% 29.99 in 10.0 mi Calm Calm - N/A   Clear
9:35 PM 55.4 °F - 32.7 °F 42% 29.99 in 10.0 mi WSW 5.8 mph - N/A   Clear
9:55 PM 54.5 °F - 32.2 °F 43% 29.99 in 10.0 mi SSW 8.1 mph - N/A   Clear
10:15 PM 54.0 °F - 31.8 °F 43% 29.99 in 10.0 mi SW 8.1 mph - N/A   Clear
10:35 PM 53.6 °F - 32.0 °F 44% 29.99 in 10.0 mi West 4.6 mph - N/A   Clear
10:55 PM 52.9 °F - 32.0 °F 45% 29.99 in 10.0 mi SSW 6.9 mph - N/A   Clear
11:15 PM 53.1 °F - 31.8 °F 44% 29.99 in 10.0 mi SSW 3.5 mph - N/A   Clear
11:35 PM 52.7 °F - 31.8 °F 45% 29.99 in 10.0 mi NW 3.5 mph - N/A   Clear
11:55 PM 48.7 °F - 32.0 °F 52% 30.00 in 10.0 mi NW 9.2 mph - N/A   Clear